Wind_Speed
18 19 19 20 20 21 21 22 24 25 27 27 26 26 26 25 26 24 23 22 20 19 19 18 17 16 14 14 13 13 12 13 13 12 12 13 14 14 15 14 14 14 14
18 18 18 19 19 20 20 21 22 24 26 27 26 26 26 26 26 25 25 24 23 21 20 20 19 17 16 15 15 15 14 14 14 13 13 14 15 15 15 15 15 15 15
18 19 19 19 19 20 20 21 22 23 24 25 26 26 27 27 28 27 26 25 24 23 22 21 20 19 18 17 17 16 16 15 15 15 14 14 15 15 16 16 16 16 15
18 19 19 19 19 19 19 20 21 22 22 24 24 25 27 28 29 28 28 26 26 24 24 22 21 20 19 19 18 18 17 16 16 16 15 15 15 15 15 16 16 16 16
18 18 18 18 18 18 18 18 19 20 21 22 23 24 26 27 28 28 29 28 27 26 25 24 23 21 20 20 20 20 19 18 18 17 17 16 15 15 15 16 16 16 16
18 18 18 18 18 17 17 17 18 19 19 21 22 23 25 27 28 28 28 29 29 27 26 25 24 23 22 21 21 21 20 19 19 19 18 18 17 16 16 16 17 17 16
18 18 18 17 17 16 16 15 16 17 18 19 21 22 24 26 27 27 28 29 29 28 27 27 26 25 24 22 21 22 22 21 20 20 19 19 18 18 17 17 18 17 17
19 18 18 17 16 15 14 13 14 14 16 17 19 21 22 24 26 27 27 28 29 29 28 27 28 27 26 24 23 23 23 23 22 21 21 20 20 19 19 18 19 19 18
19 18 18 17 16 14 13 12 11 12 14 15 17 19 20 22 25 26 27 28 29 29 29 28 29 28 27 25 25 24 23 24 23 23 22 21 21 20 20 20 20 20 19
19 18 18 16 14 13 11 10 9 10 11 13 15 17 19 21 23 25 26 27 29 29 29 29 29 27 27 27 27 26 25 25 25 24 24 23 22 22 21 21 21 21 21
18 17 17 16 14 12 11 9 8 8 9 11 14 16 17 19 21 23 25 26 27 29 29 29 29 28 27 27 27 27 26 26 26 25 25 25 24 23 23 23 23 23 23
18 17 16 15 14 12 10 8 7 7 8 10 12 14 16 18 20 21 23 25 26 27 28 28 28 28 28 27 27 27 27 27 27 27 26 26 26 25 25 25 25 25 25
17 17 16 15 14 13 11 9 7 6 6 7 9 12 14 16 18 19 20 22 23 25 26 26 27 27 28 28 27 27 27 27 28 28 28 28 28 27 27 27 27 26 26
17 16 16 14 13 12 11 9 7 5 4 5 7 9 11 13 15 17 18 19 21 23 24 25 25 27 28 28 28 28 27 27 28 28 28 29 29 28 28 28 28 27 27
16 16 15 14 13 11 10 9 7 5 3 2 4 6 9 11 13 15 16 18 19 21 23 24 24 25 26 27 28 28 27 27 27 28 29 30 30 30 29 29 29 29 29
15 15 14 14 13 12 10 8 7 5 3 2 3 5 7 9 12 13 15 16 18 19 21 23 24 25 25 26 27 27 27 27 28 28 29 30 30 31 30 30 31 31 30
14 14 14 13 13 11 10 8 7 5 4 2 2 4 6 8 10 12 14 16 17 18 19 21 23 23 24 26 27 26 26 27 27 28 29 29 30 30 31 31 31 31 32
14 14 13 12 12 11 10 9 7 6 4 2 2 4 5 7 8 10 12 14 15 15 17 19 20 22 23 24 25 25 25 26 25 26 27 28 29 29 30 31 32 32 33
13 13 13 12 11 11 10 9 8 6 5 3 2 3 4 5 8 9 11 12 14 14 15 17 18 20 21 22 23 24 25 25 25 26 26 26 27 28 30 30 31 32 33
13 13 12 12 11 10 9 8 7 6 5 4 3 2 3 4 6 8 9 10 12 13 14 16 17 18 19 20 21 22 24 24 25 25 26 26 26 27 28 29 30 32 33
13 13 12 12 11 10 9 8 7 6 5 4 3 3 3 4 5 7 9 9 11 12 13 14 15 16 17 19 20 21 21 22 24 24 25 26 27 28 29 30 30 31 32
14 14 13 12 11 10 9 8 7 6 5 4 3 3 3 4 5 7 8 9 10 12 13 13 14 16 17 18 19 20 20 21 21 22 24 25 26 27 28 29 29 30 30
16 15 14 13 12 11 10 8 7 7 6 5 4 4 4 4 5 6 7 9 10 11 12 13 13 14 15 16 17 19 20 21 21 22 24 25 25 26 27 28 28 29 30
18 17 16 15 14 13 11 10 9 7 7 6 5 5 5 5 6 6 7 8 9 10 11 12 12 13 15 16 16 18 19 21 21 22 23 24 25 26 26 27 28 29 29
21 20 18 17 16 15 13 12 11 10 9 8 7 7 6 6 7 7 8 8 9 10 11 12 14 14 15 16 17 18 18 19 20 21 22 23 24 25 25 26 27 27 28
24 22 21 20 18 17 16 15 13 12 11 11 10 10 9 9 9 9 9 9 10 11 12 12 13 14 15 16 17 17 18 18 19 20 20 22 23 24 24 25 26 27 28
Wind_Direction
306 300 294 288 283 278 273 267 262 257 253 250 247 243 237 234 231 232 229 228 228 227 225 224 223 220 218 215 211 207 202 201 197 194 191 190 187 186 188 189 190 191 192
309 305 299 294 287 281 274 269 265 259 254 250 245 241 236 231 228 229 228 226 226 225 225 225 222 220 218 215 211 210 207 204 204 201 198 196 195 195 196 194 196 197 199
311 306 302 297 291 284 277 271 266 261 256 250 245 239 235 231 227 226 226 225 224 224 224 224 222 220 219 216 213 210 208 207 205 205 204 204 202 200 200 200 200 199 198
316 310 306 301 295 288 280 272 265 260 255 250 244 238 234 231 227 225 225 224 223 222 223 222 222 220 220 218 214 212 211 210 209 208 208 207 205 205 205 207 205 205 206
322 316 310 305 299 292 283 274 265 259 254 249 243 238 233 231 229 225 224 223 221 221 221 220 220 221 219 216 214 214 213 213 213 213 212 211 210 211 210 211 211 211 212
326 321 316 310 304 296 286 277 267 259 253 247 241 237 233 229 227 224 224 222 221 221 220 220 220 220 219 219 216 215 216 215 215 216 216 215 215 215 215 216 217 217 219
330 326 323 317 310 301 291 280 270 260 251 244 239 236 233 229 227 223 222 222 220 220 220 220 219 220 220 219 217 216 216 216 217 219 218 218 218 219 219 220 221 223 223
335 332 329 324 317 308 297 286 274 261 248 241 237 234 231 228 226 222 221 220 218 219 218 220 219 220 220 220 219 219 217 217 218 221 222 222 221 221 222 224 225 227 228
339 337 335 330 325 316 303 290 278 262 247 239 235 232 230 227 224 222 219 219 219 218 219 221 221 221 220 220 220 220 220 219 220 223 224 224 225 225 226 228 229 230 232
343 342 342 339 334 328 317 301 285 266 250 240 234 230 229 226 224 221 220 219 218 218 219 220 221 221 221 221 221 222 223 223 223 225 227 227 228 229 230 231 232 233 235
346 346 346 345 341 337 330 317 296 277 255 241 234 230 228 225 225 224 220 217 217 218 220 220 221 221 221 222 222 222 223 224 225 227 229 231 231 233 235 236 237 237 238
349 348 348 348 346 343 339 331 311 286 261 245 236 231 227 224 223 222 221 219 218 217 219 219 221 222 223 223 223 222 225 226 227 229 232 233 234 236 239 241 241 241 241
350 351 352 351 351 349 346 340 330 303 269 251 238 230 228 226 223 223 222 221 219 217 218 219 221 223 224 224 224 225 227 229 230 232 235 237 238 239 240 242 244 244 244
352 353 355 354 353 353 353 350 344 334 288 253 237 229 225 223 221 221 221 221 220 219 220 221 222 223 225 226 228 229 231 233 234 235 238 239 240 242 242 243 244 245 247
350 353 355 356 355 357 357 357 356 350 333 279 237 228 224 223 221 219 219 219 220 219 221 223 223 224 225 226 229 231 232 234 237 238 240 241 242 243 243 243 244 247 248
349 352 355 357 358 357 358 356 355 354 340 295 241 231 225 223 221 218 218 220 221 221 224 225 225 227 227 226 228 231 233 237 240 241 243 243 243 243 243 244 245 246 249
345 348 351 354 357 358 358 356 353 350 342 302 249 231 229 226 221 221 218 220 223 225 227 226 227 228 229 230 229 232 234 238 241 243 244 244 244 243 243 245 247 248 251
341 343 346 350 354 356 355 354 352 350 344 323 271 240 233 225 223 220 218 220 223 226 227 228 230 229 229 230 231 233 235 239 241 244 245 244 244 244 244 247 249 252 253
333 337 340 343 347 352 353 358 356 351 346 335 309 268 247 234 227 221 221 222 225 227 228 229 231 231 230 230 232 235 236 239 243 246 246 245 246 247 247 249 251 254 254
322 326 330 334 338 344 350 353 354 350 346 340 329 301 268 246 232 227 226 226 226 226 226 228 230 231 231 230 233 237 240 242 245 248 246 245 248 250 251 252 253 256 257
311 314 318 322 327 331 334 339 344 341 340 338 328 308 283 253 236 229 227 227 227 227 228 228 230 230 233 233 235 238 242 244 247 249 248 249 250 251 253 255 256 258 260
300 302 305 308 311 316 320 324 328 328 323 322 313 298 284 265 243 237 233 231 230 230 232 231 232 235 238 237 239 239 241 245 248 247 249 252 254 253 253 256 258 259 261
290 292 293 295 297 299 302 306 311 312 307 305 303 294 289 275 259 246 239 236 233 236 235 236 239 240 241 241 242 243 246 249 251 252 252 253 254 255 255 256 258 261 263
282 284 284 285 285 287 289 290 292 295 294 288 287 286 278 273 268 262 253 247 241 239 241 244 244 245 244 246 249 250 252 253 253 254 255 257 257 257 258 260 261 264 266
275 277 278 278 277 277 278 280 280 279 279 278 277 274 271 266 264 261 255 253 251 250 250 250 252 252 252 252 253 255 256 255 256 257 258 259 259 259 260 263 265 265 267
270 271 272 272 272 271 271 271 271 270 270 269 268 266 264 263 262 260 258 258 258 256 256 255 256 257 256 255 254 256 259 258 259 259 259 260 260 261 264 265 266 267 269
Height
5816 5814 5812 5810 5809 5808 5807 5807 5808 5808 5810 5811 5814 5816 5820 5823 5827 5831 5834 5838 5841 5844 5847 5850 5853 5855 5858 5860 5863 5865 5867 5870 5872 5874 5876 5878 5880 5882 5884 5886 5888 5891 5893
5812 5810 5807 5805 5804 5803 5802 5802 5802 5802 5804 5805 5808 5811 5814 5818 5822 5826 5830 5834 5837 5840 5844 5846 5849 5852 5855 5858 5860 5863 5866 5868 5870 5873 5875 5877 5879 5881 5883 5886 5888 5890 5892
5808 5806 5803 5801 5799 5797 5796 5796 5796 5797 5798 5799 5802 5805 5808 5812 5816 5821 5825 5829 5833 5836 5840 5843 5846 5849 5852 5855 5858 5861 5864 5866 5869 5871 5873 5875 5878 5880 5882 5884 5887 5889 5891
5805 5802 5799 5796 5794 5792 5791 5790 5790 5791 5792 5793 5796 5799 5803 5806 5811 5815 5819 5824 5828 5832 5835 5839 5842 5845 5849 5852 5855 5858 5861 5864 5867 5869 5872 5874 5876 5879 5881 5883 5885 5887 5889
5801 5798 5795 5792 5789 5787 5786 5785 5785 5785 5786 5788 5790 5793 5797 5801 5805 5809 5814 5818 5823 5827 5831 5835 5838 5842 5845 5848 5852 5855 5858 5862 5864 5867 5870 5872 5874 5877 5879 5882 5884 5886 5888
5798 5795 5791 5788 5785 5782 5781 5780 5780 5780 5781 5783 5785 5788 5791 5795 5799 5804 5809 5813 5818 5822 5826 5830 5834 5838 5842 5845 5848 5852 5855 5859 5862 5865 5867 5870 5872 5875 5877 5879 5882 5884 5886
5795 5791 5787 5784 5781 5778 5776 5775 5774 5775 5776 5778 5780 5783 5786 5790 5794 5798 5803 5808 5812 5817 5821 5826 5830 5834 5838 5841 5845 5848 5852 5855 5858 5862 5864 5867 5870 5872 5875 5877 5879 5882 5884
5792 5788 5784 5780 5777 5774 5772 5770 5770 5770 5771 5773 5775 5778 5781 5785 5789 5793 5798 5802 5807 5812 5816 5821 5825 5829 5833 5837 5841 5844 5848 5851 5855 5858 5861 5864 5867 5869 5872 5874 5876 5879 5881
5790 5786 5782 5778 5774 5771 5769 5767 5766 5766 5767 5769 5771 5774 5777 5780 5784 5788 5792 5797 5802 5807 5811 5816 5820 5824 5829 5833 5837 5840 5844 5847 5851 5854 5857 5860 5863 5866 5868 5871 5873 5875 5877
5789 5784 5780 5776 5772 5769 5766 5765 5764 5764 5764 5766 5768 5770 5773 5776 5780 5784 5788 5792 5797 5802 5806 5811 5815 5820 5824 5828 5832 5836 5840 5843 5847 5850 5853 5856 5859 5862 5864 5867 5869 5871 5873
5787 5783 5779 5775 5771 5768 5765 5763 5762 5762 5762 5763 5764 5766 5769 5772 5775 5779 5783 5787 5792 5797 5801 5806 5810 5815 5819 5823 5827 5831 5835 5839 5842 5845 5849 5852 5854 5857 5860 5862 5865 5867 5869
5786 5782 5778 5774 5771 5767 5764 5762 5761 5760 5760 5760 5762 5763 5766 5768 5772 5775 5779 5783 5787 5792 5796 5801 5805 5810 5814 5818 5822 5826 5830 5834 5837 5841 5844 5847 5849 5852 5855 5857 5859 5862 5864
5786 5781 5777 5774 5770 5767 5764 5762 5760 5759 5759 5759 5759 5761 5763 5765 5768 5772 5775 5779 5783 5787 5792 5796 5800 5804 5808 5813 5817 5821 5825 5828 5832 5835 5838 5841 5844 5847 5849 5851 5854 5856 5858
5785 5781 5777 5774 5770 5767 5764 5762 5760 5759 5758 5758 5758 5759 5761 5763 5766 5769 5772 5776 5780 5783 5787 5792 5795 5800 5803 5808 5812 5816 5819 5823 5826 5830 5833 5835 5838 5841 5843 5845 5848 5850 5852
5785 5781 5777 5773 5770 5767 5765 5762 5760 5759 5758 5758 5758 5759 5760 5762 5764 5766 5769 5773 5777 5780 5784 5787 5791 5795 5798 5802 5806 5810 5814 5817 5820 5823 5826 5829 5831 5834 5837 5839 5842 5844 5846
5784 5781 5777 5774 5770 5767 5765 5762 5761 5759 5758 5758 5758 5758 5759 5760 5762 5764 5767 5770 5773 5777 5780 5784 5787 5790 5793 5797 5801 5804 5808 5811 5814 5817 5819 5822 5824 5827 5830 5833 5835 5837 5839
5784 5780 5777 5774 5770 5767 5765 5763 5761 5760 5758 5758 5758 5758 5759 5760 5761 5763 5765 5768 5771 5774 5777 5780 5783 5786 5789 5792 5796 5799 5802 5805 5808 5810 5812 5815 5817 5820 5823 5825 5828 5830 5832
5783 5780 5777 5774 5771 5768 5765 5763 5761 5760 5759 5758 5757 5757 5758 5759 5760 5761 5763 5766 5768 5771 5774 5776 5779 5782 5785 5787 5791 5794 5797 5799 5802 5804 5806 5808 5810 5813 5816 5818 5820 5822 5824
5782 5779 5776 5774 5771 5768 5765 5763 5761 5760 5759 5758 5757 5757 5757 5757 5758 5760 5762 5764 5766 5768 5770 5773 5775 5778 5780 5783 5786 5789 5791 5794 5796 5798 5800 5801 5804 5806 5808 5811 5812 5814 5816
5780 5778 5775 5773 5770 5768 5766 5764 5761 5760 5758 5757 5757 5756 5756 5756 5757 5758 5760 5761 5763 5765 5767 5769 5772 5774 5776 5778 5781 5783 5786 5788 5790 5792 5793 5795 5797 5799 5801 5803 5805 5806 5807
5778 5776 5774 5772 5769 5767 5765 5763 5761 5760 5758 5757 5757 5756 5756 5756 5756 5757 5758 5759 5761 5763 5764 5766 5768 5770 5772 5774 5776 5778 5780 5782 5784 5785 5787 5789 5791 5792 5794 5796 5797 5798 5799
5775 5773 5771 5769 5768 5766 5764 5762 5761 5759 5758 5757 5756 5755 5755 5755 5755 5755 5756 5757 5759 5760 5762 5763 5765 5766 5768 5769 5771 5773 5775 5777 5778 5780 5781 5783 5784 5785 5786 5788 5789 5789 5790
5771 5770 5768 5766 5765 5764 5762 5761 5759 5758 5757 5756 5755 5754 5754 5754 5754 5754 5754 5755 5756 5757 5759 5760 5761 5763 5764 5765 5767 5768 5770 5771 5773 5774 5775 5776 5777 5778 5779 5780 5781 5781 5782
5766 5765 5764 5763 5762 5760 5759 5758 5757 5756 5755 5754 5754 5753 5753 5752 5752 5752 5753 5753 5754 5754 5755 5756 5758 5759 5760 5761 5762 5763 5764 5765 5766 5767 5768 5769 5769 5771 5772 5772 5773 5773 5773
5761 5760 5759 5758 5757 5757 5756 5755 5754 5754 5753 5752 5752 5751 5751 5751 5750 5750 5750 5751 5751 5752 5752 5753 5754 5755 5756 5757 5758 5759 5759 5760 5760 5761 5762 5762 5763 5763 5764 5765 5765 5765 5765
5754 5753 5753 5753 5752 5752 5751 5751 5750 5750 5750 5749 5749 5748 5748 5748 5748 5748 5748 5748 5748 5749 5749 5749 5750 5751 5751 5752 5753 5753 5754 5754 5755 5755 5755 5756 5756 5756 5757 5757 5757 5757 5757